Regional Weather Roundup
Issued by NWS

Home | Current Version | Previous Version | Text Only | Print | Product List | Glossary Off
Versions: 1 2 3 4 5 6 7 8 9 10 11 12 13 14 15 16 17 18 19 20 21 22 23 24 25 26 27 28 29 30 31 32 33 34 35 36 37 38 39 40 41 42 43 44 45 46 47 48 49 50

000
ASUS44 KOUN 160800
RWROK

WEATHER ROUNDUP FOR OKLAHOMA
NATIONAL WEATHER SERVICE NORMAN OK
300 AM CDT WED APR 16 2014

NOTE: "FAIR" INDICATES FEW OR NO CLOUDS BELOW 12,000 FEET WITH NO
      SIGNIFICANT WEATHER AND/OR OBSTRUCTIONS TO VISIBILITY.

OKZ001>007-009>012-014-015-017-160900-
NORTHWEST OKLAHOMA AND THE PANHANDLE

CITY           SKY/WX    TMP DP  RH WIND       PRES   REMARKS
GAGE           CLOUDY    51  12  21 S22G35    29.82F
$$

OKZ016-021>023-033>039-044-045-160900-
SOUTHWEST OKLAHOMA

CITY           SKY/WX    TMP DP  RH WIND       PRES   REMARKS
LAWTON/REGL    MOCLDY    47  27  45 S12       29.99F
LAWTON/FT SILL MOCLDY    47  26  44 S12       29.98S
FREDERICK      CLOUDY    48  22  35 S12       29.94S
CLINTON        MOCLDY    49  19  30 S20G28    29.93F
HOBART         MOCLDY    48  22  35 S17       29.95F
$$

OKZ018>020-024>031-160900-
CENTRAL OKLAHOMA

CITY           SKY/WX    TMP DP  RH WIND       PRES   REMARKS
OKLAHOMA CITY  MOCLDY    47  24  40 S15       29.98F
OKC/WILEY POST MOCLDY    49  22  34 S25       29.98F
STILLWATER     CLEAR     48  25  40 S15       29.97F
GUTHRIE        MOCLDY    51  23  33 S16G23    29.97F
$$

OKZ008-013-054>072-160900-
NORTHEAST OKLAHOMA

CITY           SKY/WX    TMP DP  RH WIND       PRES   REMARKS
TULSA          MOCLDY    48  30  49 S12       30.02F
TULSA/JONES    PTCLDY    49  30  48 S10       30.03F
PONCA CITY     CLEAR     51  23  33 S14G25    29.95F
BARTLESVILLE   CLEAR     44  28  53 S6        30.02F
MUSKOGEE       PTCLDY    41  30  65 SE8       30.08F
$$

OKZ032-040>043-046>053-073>077-160900-
SOUTH CENTRAL/SOUTHEAST OKLAHOMA

CITY           SKY/WX    TMP DP  RH WIND       PRES   REMARKS
MCALESTER      FAIR      47  28  47 S5        30.08F
$$




USA.gov is the U.S. government's official web portal to all federal, state and local government web resources and services.